Regional Weather Roundup
Issued by NWS Memphis, TN

Home | Current Version | Previous Version | Text Only | Print | Product List | Glossary On
Versions: 1 2 3 4 5 6 7 8 9 10 11 12 13 14 15 16 17 18 19 20 21 22 23 24 25 26 27 28 29 30 31 32 33 34 35 36 37 38 39 40 41 42 43 44 45 46 47 48 49 50
000
ASUS44 KMEG 231110
RWRMEG
MEMPHIS CWA HOURLY WEATHER ROUNDUP
NATIONAL WEATHER SERVICE MEMPHIS TN
600 AM CDT WED JUL 23 2014

...WEST TENNESSEE...

CITY           SKY/WX    TMP DP  RH WIND       PRES   REMARKS
MEMPHIS INTL   PTCLDY    73  69  87 CALM      30.06R
NWS MEMPHIS      N/A     71 N/A N/A MISG        N/A
JACKSON        PTCLDY    72  70  94 CALM      30.06S FOG
LEXINGTON        N/A     70  70 100 CALM      30.06R VSB 3/4
SAVANNAH       CLEAR     70  70 100 SE3       30.07S
DYERSBURG      CLEAR     70  63  78 CALM      30.07R
UNION CITY     CLEAR     70  70 100 CALM      30.05R
PARIS          CLEAR     67  65  93 CALM      30.07S


...EASTERN ARKANSAS...

CITY           SKY/WX    TMP DP  RH WIND       PRES   REMARKS
JONESBORO      CLEAR     72  69  90 W3        30.05R
WEST MEMPHIS   CLEAR     70  70 100 CALM      30.04S FOG
BATESVILLE     PTCLDY    72  68  88 CALM      30.06R
NEWPORT        CLEAR     69  69 100 S5        30.07R FOG
WALNUT RIDGE   CLEAR     72  57  60 S5        30.05R
BLYTHEVILLE    CLEAR     72  70  93 S3        30.05S
SEARCY         CLEAR     66  66 100 CALM      30.07R FOG
STUTTGART      CLEAR     72  68  88 CALM      30.06S
PINE BLUFF     CLEAR     69  68  96 CALM      30.07R
MONTICELLO     CLEAR     69  67  93 CALM      30.06R FOG


...NORTH MISSISSIPPI...

CITY           SKY/WX    TMP DP  RH WIND       PRES   REMARKS
TUPELO         MOCLDY    73  71  93 CALM      30.06R
OLIVE BRANCH   CLEAR     72 N/A N/A CALM      30.06R
CLARKSDALE     CLEAR     72  72 100 CALM      30.06S
CORINTH        FOG       70  68  94 S5        30.06S VSB 1/2
GRENADA        PTCLDY    68  68 100 NW3       30.06S
GREENWOOD      PTCLDY    72  70  93 E3        30.06R
COLUMBUS       CLOUDY    73  73 100 CALM      30.07R
STARKVILLE     FAIR      70  70 100 CALM      30.06S FOG
GOLDEN TRIANGL CLEAR     72  70  94 CALM      30.07S


...SOUTHEAST MISSOURI...

CITY           SKY/WX    TMP DP  RH WIND       PRES   REMARKS
WEST PLAINS    PTCLDY    73  68  84 CALM      30.09R
POPLAR BLUFF   CLEAR     72  68  87 SW3       30.03S FOG
CAPE GIRARDEAU MOCLDY    71  68  90 CALM      30.04R FOG


...NORTHWEST ALABAMA...

CITY           SKY/WX    TMP DP  RH WIND       PRES   REMARKS
MUSCLE SHOALS  PTCLDY    74  71  91 NW3       30.09R FOG


...MIDDLE TENNESSEE...

CITY           SKY/WX    TMP DP  RH WIND       PRES   REMARKS
NASHVILLE      PTCLDY    73  71  93 CALM      30.07S
CLARKSVILLE    CLEAR     70  69  97 SE5       30.05S FOG
DICKSON        CLEAR     72  72 100 CALM      30.07S
COLUMBIA       CLEAR     72  72 100 S3        30.07S
LEWISBURG      CLEAR     72  70  93 CALM      30.09R


...WESTERN KENTUCKY...

CITY           SKY/WX    TMP DP  RH WIND       PRES   REMARKS
PADUCAH        CLEAR     72  68  87 NW5       30.03R FOG
FORT CAMPBELL  CLEAR     73  73 100 SW2       30.06R


...CENTRAL ARKANSAS...

CITY           SKY/WX    TMP DP  RH WIND       PRES   REMARKS
LITTLE ROCK    PTCLDY    71  67  87 SW3       30.07R FOG


SKY/WX REPORTED AS FAIR MEANS FEW OR NO CLOUDS BELOW
12 THOUSAND FEET.



USA.gov is the U.S. government's official web portal to all federal, state and local government web resources and services.